Flag for U.S.A. Weather past 2 weeks in Chesapeake, Virginia, U.S.A.

Now
81 °F

Clear.


Feels Like: 85 °F
Forecast: 74 / 87 °F
Wind: 6 mph from South

Location: Chesapeake Municipal Airport

Current Time: Sep 2, 2014 at 10:38:41 PM

Latest Report: Sep 2, 2014 at 9:55 PM


Visibility: 10 mi

Pressure: 29.96 "Hg

Humidity: 79%

Dew point: 73 °F

Location of ChesapeakeLocation

Historic Weather in Chesapeake — Graph

°F

Chesapeake temperature yesterday

Maximum temperature yesterday: 93 °F (at 3:55 PM)
Minimum temperature yesterday: 73 °F (at 6:15 AM)
Average temperature yesterday: 82 °F

Past Weeks' High & Low Weather Summary

 TemperatureHumidityPressure
High97 °F (Sep 2, 3:35 PM)100% (Aug 20, 4:55 AM)30.25 "Hg (Aug 20, 4:55 AM)
Low57 °F (Aug 26, 5:15 AM)40% (Aug 26, 3:15 PM)29.76 "Hg (Aug 19, 3:15 AM)
Average77 °F77%30.03 "Hg
* Reported Aug 18 9:15 PM — Sep 2 9:15 PM, Chesapeake, Weather by CustomWeather, © 2014

Note: Actual official high and low records may vary slightly from our data, if they occured in-between our weather recording intervals... More about our weather records

Advertising

Chesapeake weather history for previous 24 hours

 ConditionsComfort  
Time TempWeatherWind HumidityBarometerVisibility
9:15 PM
Sep 2
81 °FClear.7 mph74%29.95 "Hg10 mi
8:55 PM81 °FClear.5 mph74%29.95 "Hg10 mi
8:15 PM82 °FSunny.3 mph70%29.94 "Hg10 mi
7:55 PM82 °FSunny.5 mph70%29.94 "Hg10 mi
7:35 PM84 °FSunny.3 mph70%29.93 "Hg10 mi
7:15 PM86 °FSunny.3 mph62%29.93 "Hg10 mi
6:55 PM90 °FSunny.5 mph55%29.93 "Hg10 mi
6:35 PM91 °FSunny.6 mph49%29.92 "Hg10 mi
6:15 PM91 °FSunny.6 mph49%29.92 "Hg10 mi
5:55 PM93 °FSunny.8 mph49%29.92 "Hg10 mi
5:35 PM93 °FSunny.8 mph47%29.93 "Hg10 mi
5:15 PM93 °FSunny.7 mph47%29.93 "Hg10 mi
4:55 PM95 °FSunny.8 mph44%29.93 "Hg10 mi
4:35 PM95 °FSunny.8 mph47%29.94 "Hg10 mi
4:15 PM95 °FSunny.9 mph44%29.95 "Hg10 mi
3:55 PM95 °FSunny.10 mph44%29.95 "Hg10 mi
3:35 PM97 °FSunny.9 mph42%29.95 "Hg10 mi
2:55 PM95 °FSunny.10 mph44%29.96 "Hg10 mi
2:35 PM95 °FSunny.7 mph44%29.97 "Hg10 mi
2:15 PM95 °FSunny.10 mph44%29.98 "Hg10 mi
1:55 PM95 °FSunny.7 mph44%29.98 "Hg10 mi
1:35 PM93 °FSunny.9 mph49%29.99 "Hg10 mi
1:15 PM93 °FSunny.8 mph49%29.99 "Hg10 mi
12:55 PM93 °FSunny.10 mph49%30.00 "Hg10 mi
12:35 PM93 °FSunny.10 mph53%30.00 "Hg10 mi
12:15 PM93 °FSunny.8 mph53%30.01 "Hg10 mi
11:55 AM91 °FSunny.5 mph56%30.01 "Hg7 mi
11:35 AM91 °FSunny.7 mph56%30.02 "Hg10 mi
11:15 AM90 °FSunny.6 mph59%30.03 "Hg7 mi
10:55 AM90 °FSunny.5 mph59%30.03 "Hg5 mi
10:35 AM88 °FSunny.5 mph66%30.03 "Hg7 mi
10:15 AM88 °FSunny.5 mph66%30.03 "Hg7 mi
9:55 AM84 °FSunny.5 mph74%30.03 "Hg7 mi
9:15 AM82 °FScattered clouds.3 mph79%30.04 "Hg7 mi
8:55 AM82 °FSunny.5 mph79%30.04 "Hg7 mi
8:35 AM81 °FFog.6 mph84%30.04 "Hg5 mi
8:15 AM79 °FFog.6 mph89%30.04 "Hg5 mi
7:55 AM79 °FFog.3 mph89%30.05 "Hg5 mi
7:35 AM79 °FFog.6 mph89%30.04 "Hg5 mi
7:15 AM77 °FFog.5 mph94%30.04 "Hg5 mi
6:55 AM77 °FFog.3 mph94%30.03 "Hg5 mi
6:35 AM77 °FClear.3 mph94%30.03 "Hg7 mi
6:15 AM77 °FClear.6 mph94%30.02 "Hg7 mi
5:55 AM79 °FClear.6 mph89%30.02 "Hg7 mi
5:35 AM79 °FClear.5 mph89%30.01 "Hg7 mi
5:15 AM79 °FClear.5 mph89%30.01 "Hg7 mi
4:55 AM79 °FClear.5 mph89%30.01 "Hg7 mi
4:35 AM79 °FClear.3 mph89%30.01 "Hg7 mi
4:15 AM79 °FClear.3 mph89%30.01 "Hg7 mi
3:55 AM79 °FClear.3 mph89%30.01 "Hg7 mi
3:35 AM79 °FClear.5 mph89%30.01 "Hg7 mi
3:15 AM79 °FClear.5 mph89%30.02 "Hg7 mi
2:55 AM79 °FClear.5 mph89%30.02 "Hg7 mi
2:35 AM79 °FClear.5 mph89%30.03 "Hg7 mi
2:15 AM79 °FClear.3 mph89%30.03 "Hg7 mi
1:55 AM79 °FClear.5 mph89%30.03 "Hg7 mi
1:35 AM79 °FFog.5 mph89%30.03 "Hg5 mi
1:15 AM79 °FClear.3 mph94%30.03 "Hg7 mi
12:55 AM81 °FClear.6 mph89%30.03 "Hg7 mi
12:15 AM81 °FClear.6 mph89%30.03 "Hg7 mi
11:55 PM
Sep 1
81 °FClear.6 mph89%30.02 "Hg7 mi
11:35 PM81 °FClear.6 mph84%30.02 "Hg7 mi
11:15 PM79 °FClear.5 mph89%30.02 "Hg7 mi
10:55 PM81 °FClear.6 mph84%30.02 "Hg7 mi
10:35 PM79 °FClear.5 mph84%30.02 "Hg7 mi
10:15 PM77 °FClear.3 mph89%30.02 "Hg7 mi
Weather by CustomWeather, © 2014

See weather overviewHow to use our weather pages